Location: Ashtead
(51.3000°N, 0.3000°W)
Time: 18:49:22
(UTC+00:00)

Cosmos 990 Rocket - Pass Details

Date: 26 September 2023
Orbit: 746 x 766 km, 74.0° (Epoch: 08 December)

Event Time Altitude Azimuth Distance (km) Brightness Sun altitude
Exits shadow 03:02:17 73° 307° (NW) 806 3.9 -26.0°
Drops below altitude 10° 03:07:28 10° 22° (NNE) 2,317 7.2 -25.3°
Sets 03:09:52 0° 24° (NNE) 3,248 8.1 -25.0°
